User: anonymous   Login
Location: Unspecified
(0.0000°N, 0.0000°E)
Time: 18:01:02
(UTC+00:00)
Language:

CARTOSAT 2 - Orbit

View from above orbital plane
View from above orbital plane
View from above satellite
View from above satellite

Ground track
Ground track

The orbit data is extracted from the following two-line orbital elements,

1 29710U 07001B   19080.36270186  .00000081  00000-0  18181-4 0  9990
2 29710  97.9851 140.1851 0001528 101.6250 258.5119 14.78653412658091
Epoch (UTC): 21 March 2019 08:42:17
Eccentricity: 0.0001528
inclination: 97.9851°
perigee height: 632 km
apogee height: 634 km
right ascension of ascending node: 140.1851°
argument of perigee: 101.6250°
revolutions per day: 14.78653412
mean anomaly at epoch: 258.5119°
orbit number at epoch: 65809

The dashed part of the orbit path shows where the satellite is in the earth's shadow,  

DLR